TimeAST,TemperatureF,Dew PointF,Humidity,Sea Level PressureIn,VisibilityMPH,Wind Direction,Wind SpeedMPH,Gust SpeedMPH,PrecipitationIn,Events,Conditions,WindDirDegrees,DateUTC
12:53 AM,78.1,75.0,90,29.94,10.0,East,5.8,-,N/A,,Clear,100,2012-11-18 04:53:00
1:53 AM,79.0,75.0,88,29.93,10.0,East,8.1,-,N/A,,Partly Cloudy,90,2012-11-18 05:53:00
2:53 AM,78.1,75.0,90,29.91,10.0,ESE,4.6,-,N/A,,Partly Cloudy,110,2012-11-18 06:53:00
3:53 AM,79.0,75.0,88,29.91,10.0,East,4.6,-,N/A,,Partly Cloudy,90,2012-11-18 07:53:00
4:53 AM,78.1,75.0,90,29.92,10.0,East,5.8,-,N/A,,Clear,80,2012-11-18 08:53:00
5:53 AM,78.1,75.0,90,29.93,10.0,ESE,3.5,-,N/A,,Clear,110,2012-11-18 09:53:00
6:53 AM,79.0,75.0,88,29.94,10.0,ESE,4.6,-,N/A,,Scattered Clouds,110,2012-11-18 10:53:00
7:53 AM,82.0,75.0,79,29.96,10.0,SE,10.4,-,N/A,,Partly Cloudy,130,2012-11-18 11:53:00
8:53 AM,84.0,75.0,74,29.97,10.0,SE,9.2,-,N/A,,Clear,140,2012-11-18 12:53:00
9:53 AM,84.0,75.0,74,29.98,10.0,SE,10.4,-,N/A,,Clear,140,2012-11-18 13:53:00
10:53 AM,84.9,75.0,72,29.97,10.0,SSE,10.4,-,N/A,,Clear,150,2012-11-18 14:53:00
11:53 AM,84.9,75.9,74,29.96,10.0,SSE,9.2,-,N/A,,Clear,150,2012-11-18 15:53:00
12:53 PM,84.9,75.0,72,29.94,10.0,SE,8.1,-,N/A,,Overcast,140,2012-11-18 16:53:00
1:53 PM,84.9,75.0,72,29.92,10.0,SE,12.7,-,N/A,,Clear,140,2012-11-18 17:53:00
2:53 PM,84.9,73.9,69,29.91,10.0,SE,8.1,-,N/A,,Clear,140,2012-11-18 18:53:00
3:53 PM,84.0,75.0,74,29.92,10.0,Variable,5.8,-,N/A,,Clear,0,2012-11-18 19:53:00
4:53 PM,82.9,75.0,77,29.92,10.0,SSE,9.2,-,N/A,,Clear,150,2012-11-18 20:53:00
5:53 PM,82.9,75.0,77,29.93,10.0,SE,8.1,-,N/A,,Partly Cloudy,130,2012-11-18 21:53:00
6:53 PM,81.0,75.0,82,29.94,10.0,ESE,8.1,-,N/A,,Partly Cloudy,110,2012-11-18 22:53:00
7:53 PM,81.0,75.9,85,29.96,10.0,East,5.8,-,N/A,,Clear,90,2012-11-18 23:53:00
8:53 PM,80.1,75.9,87,29.97,10.0,East,6.9,-,N/A,,Clear,90,2012-11-19 00:53:00
9:53 PM,80.1,75.0,85,29.97,10.0,East,6.9,-,N/A,,Clear,100,2012-11-19 01:53:00
10:53 PM,80.1,77.0,90,29.97,10.0,East,4.6,-,N/A,,Scattered Clouds,90,2012-11-19 02:53:00
11:32 PM,80.6,75.2,84,29.96,10.0,East,5.8,-,N/A,,Mostly Cloudy,90,2012-11-19 03:32:00
11:43 PM,80.6,73.4,79,29.96,10.0,ESE,6.9,-,N/A,,Mostly Cloudy,110,2012-11-19 03:43:00
11:53 PM,79.0,75.0,88,29.96,10.0,East,4.6,-,N/A,,Scattered Clouds,90,2012-11-19 03:53:00